Year,Month,Day,Hour,Minute,Value (Times are PST for temperature in C)
2014,07,09,00,00,19.20
2014,07,09,00,01,19.10
2014,07,09,00,02,19.10
2014,07,09,00,03,19.10
2014,07,09,00,04,19.10
2014,07,09,00,05,19.00
2014,07,09,00,06,19.00
2014,07,09,00,07,19.00
2014,07,09,00,08,18.90
2014,07,09,00,09,18.90
2014,07,09,00,10,18.90
2014,07,09,00,11,18.90
2014,07,09,00,12,18.90
2014,07,09,00,13,18.90
2014,07,09,00,14,18.80
2014,07,09,00,15,18.80
2014,07,09,00,16,18.80
2014,07,09,00,17,18.80
2014,07,09,00,18,18.70
2014,07,09,00,19,18.70
2014,07,09,00,20,18.70
2014,07,09,00,21,18.70
2014,07,09,00,22,18.70
2014,07,09,00,23,18.70
2014,07,09,00,24,18.60
2014,07,09,00,25,18.60
2014,07,09,00,26,18.60
2014,07,09,00,27,18.60
2014,07,09,00,28,18.60
2014,07,09,00,29,18.50
2014,07,09,00,30,18.50
2014,07,09,00,31,18.50
2014,07,09,00,32,18.50
2014,07,09,00,33,18.50
2014,07,09,00,34,18.40
2014,07,09,00,35,18.40
2014,07,09,00,36,18.40
2014,07,09,00,37,18.40
2014,07,09,00,38,18.40
2014,07,09,00,39,18.40
2014,07,09,00,40,18.30
2014,07,09,00,41,18.30
2014,07,09,00,42,18.30
2014,07,09,00,43,18.30
2014,07,09,00,44,18.30
2014,07,09,00,45,18.20
2014,07,09,00,46,18.20
2014,07,09,00,47,18.20
2014,07,09,00,48,18.20
2014,07,09,00,49,18.20
2014,07,09,00,50,18.10
2014,07,09,00,51,18.10
2014,07,09,00,52,18.10
2014,07,09,00,53,18.10
2014,07,09,00,54,18.10
2014,07,09,00,55,18.00
2014,07,09,00,56,18.00
2014,07,09,00,57,18.00
2014,07,09,00,58,17.90
2014,07,09,00,59,17.90
2014,07,09,01,00,17.90
2014,07,09,01,01,17.90
2014,07,09,01,02,17.90
2014,07,09,01,03,17.90
2014,07,09,01,04,17.90
2014,07,09,01,05,17.90
2014,07,09,01,06,17.90
2014,07,09,01,07,17.90
2014,07,09,01,08,17.90
2014,07,09,01,09,17.90
2014,07,09,01,10,17.90
2014,07,09,01,11,17.80
2014,07,09,01,12,17.80
2014,07,09,01,13,17.80
2014,07,09,01,14,17.80
2014,07,09,01,15,17.80
2014,07,09,01,16,17.70
2014,07,09,01,17,17.70
2014,07,09,01,18,17.70
2014,07,09,01,19,17.70
2014,07,09,01,20,17.70
2014,07,09,01,21,17.70
2014,07,09,01,22,17.70
2014,07,09,01,23,17.60
2014,07,09,01,24,17.60
2014,07,09,01,25,17.60
2014,07,09,01,26,17.60
2014,07,09,01,27,17.60
2014,07,09,01,28,17.60
2014,07,09,01,29,17.60
2014,07,09,01,30,17.60
2014,07,09,01,31,17.60
2014,07,09,01,32,17.60
2014,07,09,01,33,17.60
2014,07,09,01,34,17.60
2014,07,09,01,35,17.60
2014,07,09,01,36,17.50
2014,07,09,01,37,17.50
2014,07,09,01,38,17.50
2014,07,09,01,39,17.40
2014,07,09,01,40,17.40
2014,07,09,01,41,17.40
2014,07,09,01,42,17.40
2014,07,09,01,43,17.40
2014,07,09,01,44,17.30
2014,07,09,01,45,17.30
2014,07,09,01,46,17.30
2014,07,09,01,47,17.30
2014,07,09,01,48,17.20
2014,07,09,01,49,17.20
2014,07,09,01,50,17.20
2014,07,09,01,51,17.20
2014,07,09,01,52,17.20
2014,07,09,01,53,17.10
2014,07,09,01,54,17.10
2014,07,09,01,55,17.10
2014,07,09,01,56,17.10
2014,07,09,01,57,17.10
2014,07,09,01,58,17.10
2014,07,09,01,59,17.10
2014,07,09,02,00,17.00
2014,07,09,02,01,17.00
2014,07,09,02,02,17.00
2014,07,09,02,03,17.00
2014,07,09,02,04,17.00
2014,07,09,02,05,17.00
2014,07,09,02,06,17.00
2014,07,09,02,07,17.00
2014,07,09,02,08,17.00
2014,07,09,02,09,17.00
2014,07,09,02,10,17.00
2014,07,09,02,11,17.00
2014,07,09,02,12,17.00
2014,07,09,02,13,17.00
2014,07,09,02,14,17.00
2014,07,09,02,15,17.00
2014,07,09,02,16,17.00
2014,07,09,02,17,17.00
2014,07,09,02,18,17.00
2014,07,09,02,19,17.00
2014,07,09,02,20,17.00
2014,07,09,02,21,17.00
2014,07,09,02,22,16.90
2014,07,09,02,23,16.90
2014,07,09,02,24,16.90
2014,07,09,02,25,16.90
2014,07,09,02,26,16.90
2014,07,09,02,27,16.90
2014,07,09,02,28,16.80
2014,07,09,02,29,16.80
2014,07,09,02,30,16.80
2014,07,09,02,31,16.80
2014,07,09,02,32,16.80
2014,07,09,02,33,16.70
2014,07,09,02,34,16.70
2014,07,09,02,35,16.70
2014,07,09,02,36,16.70
2014,07,09,02,37,16.70
2014,07,09,02,38,16.70
2014,07,09,02,39,16.70
2014,07,09,02,40,16.70
2014,07,09,02,41,16.70
2014,07,09,02,42,16.70
2014,07,09,02,43,16.60
2014,07,09,02,44,16.60
2014,07,09,02,45,16.60
2014,07,09,02,46,16.60
2014,07,09,02,47,16.60
2014,07,09,02,48,16.50
2014,07,09,02,49,16.50
2014,07,09,02,50,16.50
2014,07,09,02,51,16.40
2014,07,09,02,52,16.40
2014,07,09,02,53,16.40
2014,07,09,02,54,16.40
2014,07,09,02,55,16.40
2014,07,09,02,56,16.40
2014,07,09,02,57,16.30
2014,07,09,02,58,16.30
2014,07,09,02,59,16.30
2014,07,09,03,00,16.30
2014,07,09,03,01,16.30
2014,07,09,03,02,16.30
2014,07,09,03,03,16.20
2014,07,09,03,04,16.20
2014,07,09,03,05,16.20
2014,07,09,03,06,16.20
2014,07,09,03,07,16.20
2014,07,09,03,08,16.20
2014,07,09,03,09,16.20
2014,07,09,03,10,16.20
2014,07,09,03,11,16.20
2014,07,09,03,12,16.20
2014,07,09,03,13,16.20
2014,07,09,03,14,16.20
2014,07,09,03,15,16.20
2014,07,09,03,16,16.10
2014,07,09,03,17,16.10
2014,07,09,03,18,16.10
2014,07,09,03,19,16.10
2014,07,09,03,20,16.10
2014,07,09,03,21,16.00
2014,07,09,03,22,16.00
2014,07,09,03,23,15.90
2014,07,09,03,24,15.90
2014,07,09,03,25,15.90
2014,07,09,03,26,15.90
2014,07,09,03,27,15.90
2014,07,09,03,28,15.80
2014,07,09,03,29,15.80
2014,07,09,03,30,15.80
2014,07,09,03,31,15.80
2014,07,09,03,32,15.70
2014,07,09,03,33,15.70
2014,07,09,03,34,15.60
2014,07,09,03,35,15.60
2014,07,09,03,36,15.60
2014,07,09,03,37,15.50
2014,07,09,03,38,15.50
2014,07,09,03,39,15.50
2014,07,09,03,40,15.40
2014,07,09,03,41,15.40
2014,07,09,03,42,15.40
2014,07,09,03,43,15.30
2014,07,09,03,44,15.30
2014,07,09,03,45,15.30
2014,07,09,03,46,15.30
2014,07,09,03,47,15.20
2014,07,09,03,48,15.20
2014,07,09,03,49,15.20
2014,07,09,03,50,15.20
2014,07,09,03,51,15.20
2014,07,09,03,52,15.20
2014,07,09,03,53,15.20
2014,07,09,03,54,15.20
2014,07,09,03,55,15.20
2014,07,09,03,56,15.20
2014,07,09,03,57,15.20
2014,07,09,03,58,15.30
2014,07,09,03,59,15.30
2014,07,09,04,00,15.30
2014,07,09,04,01,15.40
2014,07,09,04,02,15.40
2014,07,09,04,03,15.50
2014,07,09,04,04,15.50
2014,07,09,04,05,15.60
2014,07,09,04,06,15.60
2014,07,09,04,07,15.70
2014,07,09,04,08,15.70
2014,07,09,04,09,15.70
2014,07,09,04,10,15.70
2014,07,09,04,11,15.70
2014,07,09,04,12,15.70
2014,07,09,04,13,15.70
2014,07,09,04,14,15.70
2014,07,09,04,15,15.70
2014,07,09,04,16,15.70
2014,07,09,04,17,15.70
2014,07,09,04,18,15.70
2014,07,09,04,19,15.70
2014,07,09,04,20,15.70
2014,07,09,04,21,15.70
2014,07,09,04,22,15.70
2014,07,09,04,23,15.70
2014,07,09,04,24,15.70
2014,07,09,04,25,15.60
2014,07,09,04,26,15.60
2014,07,09,04,27,15.60
2014,07,09,04,28,15.60
2014,07,09,04,29,15.60
2014,07,09,04,30,15.60
2014,07,09,04,31,15.60
2014,07,09,04,32,15.60
2014,07,09,04,33,15.50
2014,07,09,04,34,15.50
2014,07,09,04,35,15.50
2014,07,09,04,36,15.40
2014,07,09,04,37,15.40
2014,07,09,04,38,15.40
2014,07,09,04,39,15.40
2014,07,09,04,40,15.30
2014,07,09,04,41,15.30
2014,07,09,04,42,15.30
2014,07,09,04,43,15.30
2014,07,09,04,44,15.30
2014,07,09,04,45,15.30
2014,07,09,04,46,15.20
2014,07,09,04,47,15.20
2014,07,09,04,48,15.20
2014,07,09,04,49,15.20
2014,07,09,04,50,15.20
2014,07,09,04,51,15.20
2014,07,09,04,52,15.10
2014,07,09,04,53,15.10
2014,07,09,04,54,15.10
2014,07,09,04,55,15.00
2014,07,09,04,56,15.00
2014,07,09,04,57,15.00
2014,07,09,04,58,15.00
2014,07,09,04,59,15.00
2014,07,09,05,00,15.00
2014,07,09,05,01,15.00
2014,07,09,05,02,15.00
2014,07,09,05,03,15.00
2014,07,09,05,04,15.00
2014,07,09,05,05,15.00
2014,07,09,05,06,15.00
2014,07,09,05,07,15.00
2014,07,09,05,08,15.00
2014,07,09,05,09,15.00
2014,07,09,05,10,15.00
2014,07,09,05,11,15.00
2014,07,09,05,12,15.00
2014,07,09,05,13,15.00
2014,07,09,05,14,15.00
2014,07,09,05,15,15.00
2014,07,09,05,16,15.00
2014,07,09,05,17,15.00
2014,07,09,05,18,15.00
2014,07,09,05,19,15.00
2014,07,09,05,20,15.00
2014,07,09,05,21,15.00
2014,07,09,05,22,15.00
2014,07,09,05,23,15.00
2014,07,09,05,24,15.00
2014,07,09,05,25,15.00
2014,07,09,05,26,15.00
2014,07,09,05,27,15.00
2014,07,09,05,28,15.00
2014,07,09,05,29,15.00
2014,07,09,05,30,15.00
2014,07,09,05,31,15.00
2014,07,09,05,32,15.00
2014,07,09,05,33,15.00
2014,07,09,05,34,15.00
2014,07,09,05,35,15.00
2014,07,09,05,36,14.90
2014,07,09,05,37,14.90
2014,07,09,05,38,14.90
2014,07,09,05,39,14.90
2014,07,09,05,40,14.90
2014,07,09,05,41,14.90
2014,07,09,05,42,14.90
2014,07,09,05,43,14.90
2014,07,09,05,44,14.90
2014,07,09,05,45,14.90
2014,07,09,05,46,14.90
2014,07,09,05,47,15.00
2014,07,09,05,48,15.00
2014,07,09,05,49,15.00
2014,07,09,05,50,15.00
2014,07,09,05,51,15.00
2014,07,09,05,52,15.00
2014,07,09,05,53,15.00
2014,07,09,05,54,15.00
2014,07,09,05,55,15.00
2014,07,09,05,56,15.00
2014,07,09,05,57,15.10
2014,07,09,05,58,15.10
2014,07,09,05,59,15.20
2014,07,09,06,00,15.20
2014,07,09,06,01,15.30
2014,07,09,06,02,15.30
2014,07,09,06,03,15.30
2014,07,09,06,04,15.30
2014,07,09,06,05,15.30
2014,07,09,06,06,15.40
2014,07,09,06,07,15.40
2014,07,09,06,08,15.40
2014,07,09,06,09,15.40
2014,07,09,06,10,15.40
2014,07,09,06,11,15.50
2014,07,09,06,12,15.50
2014,07,09,06,13,15.50
2014,07,09,06,14,15.50
2014,07,09,06,15,15.50
2014,07,09,06,16,15.50
2014,07,09,06,17,15.50
2014,07,09,06,18,15.60
2014,07,09,06,19,15.60
2014,07,09,06,20,15.60
2014,07,09,06,21,15.60
2014,07,09,06,22,15.60
2014,07,09,06,23,15.70
2014,07,09,06,24,15.70
2014,07,09,06,25,15.70
2014,07,09,06,26,15.70
2014,07,09,06,27,15.70
2014,07,09,06,28,15.80
2014,07,09,06,29,15.80
2014,07,09,06,30,15.80
2014,07,09,06,31,15.80
2014,07,09,06,32,15.80
2014,07,09,06,33,15.80
2014,07,09,06,34,15.80
2014,07,09,06,35,15.80
2014,07,09,06,36,15.90
2014,07,09,06,37,15.90
2014,07,09,06,38,15.90
2014,07,09,06,39,15.90
2014,07,09,06,40,15.90
2014,07,09,06,41,16.00
2014,07,09,06,42,16.00
2014,07,09,06,43,16.00
2014,07,09,06,44,16.00
2014,07,09,06,45,16.10
2014,07,09,06,46,16.10
2014,07,09,06,47,16.10
2014,07,09,06,48,16.10
2014,07,09,06,49,16.10
2014,07,09,06,50,16.20
2014,07,09,06,51,16.20
2014,07,09,06,52,16.20
2014,07,09,06,53,16.30
2014,07,09,06,54,16.30
2014,07,09,06,55,16.30
2014,07,09,06,56,16.30
2014,07,09,06,57,16.40
2014,07,09,06,58,16.40
2014,07,09,06,59,16.40
2014,07,09,07,00,16.50
2014,07,09,07,01,16.50
2014,07,09,07,02,16.50
2014,07,09,07,03,16.60
2014,07,09,07,04,16.60
2014,07,09,07,05,16.60
2014,07,09,07,06,16.60
2014,07,09,07,07,16.60
2014,07,09,07,08,16.70
2014,07,09,07,09,16.70
2014,07,09,07,10,16.70
2014,07,09,07,11,16.70
2014,07,09,07,12,16.70
2014,07,09,07,13,16.70
2014,07,09,07,14,16.70
2014,07,09,07,15,16.70
2014,07,09,07,16,16.70
2014,07,09,07,17,16.70
2014,07,09,07,18,16.70
2014,07,09,07,19,16.70
2014,07,09,07,20,16.70
2014,07,09,07,21,16.70
2014,07,09,07,22,16.70
2014,07,09,07,23,16.70
2014,07,09,07,24,16.70
2014,07,09,07,25,16.70
2014,07,09,07,26,16.70
2014,07,09,07,27,16.70
2014,07,09,07,28,16.70
2014,07,09,07,29,16.70
2014,07,09,07,30,16.70
2014,07,09,07,31,16.70
2014,07,09,07,32,16.70
2014,07,09,07,33,16.70
2014,07,09,07,34,16.70
2014,07,09,07,35,16.70
2014,07,09,07,36,16.70
2014,07,09,07,37,16.80
2014,07,09,07,38,16.80
2014,07,09,07,39,16.80
2014,07,09,07,40,16.80
2014,07,09,07,41,16.80
2014,07,09,07,42,16.90
2014,07,09,07,43,16.90
2014,07,09,07,44,16.90
2014,07,09,07,45,17.00
2014,07,09,07,46,17.00
2014,07,09,07,47,17.10
2014,07,09,07,48,17.10
2014,07,09,07,49,17.10
2014,07,09,07,50,17.10
2014,07,09,07,51,17.10
2014,07,09,07,52,17.10
2014,07,09,07,53,17.10
2014,07,09,07,54,17.10
2014,07,09,07,55,17.10
2014,07,09,07,56,17.10
2014,07,09,07,57,17.10
2014,07,09,07,58,17.10
2014,07,09,07,59,17.20
2014,07,09,08,00,17.20
2014,07,09,08,01,17.20
2014,07,09,08,02,17.20
2014,07,09,08,03,17.20
2014,07,09,08,04,17.20
2014,07,09,08,05,17.30
2014,07,09,08,06,17.30
2014,07,09,08,07,17.30
2014,07,09,08,08,17.30
2014,07,09,08,09,17.30
2014,07,09,08,10,17.30
2014,07,09,08,11,17.20
2014,07,09,08,12,17.20
2014,07,09,08,13,17.30
2014,07,09,08,14,17.30
2014,07,09,08,15,17.30
2014,07,09,08,16,17.30
2014,07,09,08,17,17.30
2014,07,09,08,18,17.40
2014,07,09,08,19,17.30
2014,07,09,08,20,17.30
2014,07,09,08,21,17.30
2014,07,09,08,22,17.30
2014,07,09,08,23,17.20
2014,07,09,08,24,17.20
2014,07,09,08,25,17.20
2014,07,09,08,26,17.20
2014,07,09,08,27,17.20
2014,07,09,08,28,17.20
2014,07,09,08,29,17.20
2014,07,09,08,30,17.20
2014,07,09,08,31,17.20
2014,07,09,08,32,17.20
2014,07,09,08,33,17.20
2014,07,09,08,34,17.20
2014,07,09,10,49,18.50
2014,07,09,10,50,18.50
2014,07,09,10,51,18.50
2014,07,09,10,52,18.50
2014,07,09,10,53,18.40
2014,07,09,10,54,18.40
2014,07,09,10,55,18.50
2014,07,09,10,56,18.50
2014,07,09,10,57,18.50
2014,07,09,10,58,18.50
2014,07,09,10,59,18.50
2014,07,09,11,00,18.60
2014,07,09,11,01,18.60
2014,07,09,11,02,18.70
2014,07,09,11,03,18.70
2014,07,09,11,04,18.60
2014,07,09,11,05,18.60
2014,07,09,11,06,18.60
2014,07,09,11,07,18.60
2014,07,09,11,08,18.60
2014,07,09,11,09,18.60
2014,07,09,11,10,18.60
2014,07,09,11,11,18.60
2014,07,09,11,12,18.70
2014,07,09,11,13,18.70
2014,07,09,11,14,18.80
2014,07,09,11,15,18.80
2014,07,09,11,16,18.90
2014,07,09,11,17,18.90
2014,07,09,11,18,19.00
2014,07,09,11,19,19.00
2014,07,09,11,20,18.90
2014,07,09,11,21,18.90
2014,07,09,11,22,18.80
2014,07,09,11,23,18.80
2014,07,09,11,24,18.80
2014,07,09,11,25,18.80
2014,07,09,11,26,18.90
2014,07,09,11,27,18.90
2014,07,09,11,28,19.00
2014,07,09,11,29,19.10
2014,07,09,11,30,19.20
2014,07,09,11,31,19.20
2014,07,09,11,32,19.20
2014,07,09,11,33,19.20
2014,07,09,11,34,19.10
2014,07,09,11,35,19.10
2014,07,09,11,36,19.10
2014,07,09,11,37,19.10
2014,07,09,11,38,19.10
2014,07,09,11,39,19.10
2014,07,09,11,40,19.10
2014,07,09,11,41,19.10
2014,07,09,11,42,19.20
2014,07,09,11,43,19.20
2014,07,09,11,44,19.30
2014,07,09,11,45,19.30
2014,07,09,11,46,19.20
2014,07,09,11,47,19.30
2014,07,09,11,48,19.30
2014,07,09,11,49,19.30
2014,07,09,11,50,19.30
2014,07,09,11,51,19.30
2014,07,09,11,52,19.30
2014,07,09,11,53,19.30
2014,07,09,11,54,19.40
2014,07,09,11,55,19.40
2014,07,09,11,56,19.40
2014,07,09,11,57,19.40
2014,07,09,11,58,19.30
2014,07,09,11,59,19.30
2014,07,09,12,00,19.30
2014,07,09,12,01,19.30
2014,07,09,12,02,19.30
2014,07,09,12,03,19.30
2014,07,09,12,04,19.30
2014,07,09,12,05,19.30
2014,07,09,12,06,19.30
2014,07,09,12,07,19.40
2014,07,09,12,08,19.40
2014,07,09,12,09,19.40
2014,07,09,12,10,19.40
2014,07,09,12,11,19.40
2014,07,09,12,12,19.40
2014,07,09,12,13,19.40
2014,07,09,12,14,19.40
2014,07,09,12,15,19.40
2014,07,09,12,16,19.50
2014,07,09,12,17,19.60
2014,07,09,12,18,19.50
2014,07,09,12,19,19.50
2014,07,09,12,20,19.50
2014,07,09,12,21,19.50
2014,07,09,12,22,19.50
2014,07,09,12,23,19.50
2014,07,09,12,24,19.40
2014,07,09,12,25,19.40
2014,07,09,12,26,19.40
2014,07,09,12,27,19.40
2014,07,09,12,28,19.40
2014,07,09,12,29,19.40
2014,07,09,12,30,19.50
2014,07,09,12,31,19.60
2014,07,09,12,32,19.60
2014,07,09,12,33,19.60
2014,07,09,12,34,19.60
2014,07,09,12,35,19.60
2014,07,09,12,36,19.60
2014,07,09,12,37,19.60
2014,07,09,12,38,19.60
2014,07,09,12,39,19.60
2014,07,09,12,40,19.50
2014,07,09,12,41,19.40
2014,07,09,12,42,19.40
2014,07,09,12,43,19.40
2014,07,09,12,44,19.50
2014,07,09,12,45,19.50
2014,07,09,12,46,19.60
2014,07,09,12,47,19.50
2014,07,09,12,48,19.50
2014,07,09,12,49,19.50
2014,07,09,12,50,19.50
2014,07,09,12,51,19.60
2014,07,09,12,52,19.60
2014,07,09,12,53,19.60
2014,07,09,12,54,19.60
2014,07,09,12,55,19.60
2014,07,09,12,56,19.70
2014,07,09,12,57,19.70
2014,07,09,12,58,19.80
2014,07,09,12,59,19.90
2014,07,09,13,00,20.00
2014,07,09,13,01,20.00
2014,07,09,13,02,20.10
2014,07,09,13,03,20.20
2014,07,09,13,04,20.30
2014,07,09,13,05,20.30
2014,07,09,13,06,20.30
2014,07,09,13,07,20.20
2014,07,09,13,08,20.10
2014,07,09,13,09,20.00
2014,07,09,13,10,19.90
2014,07,09,13,11,19.90
2014,07,09,13,12,19.90
2014,07,09,13,13,19.80
2014,07,09,13,14,19.90
2014,07,09,13,15,19.90
2014,07,09,13,16,20.00
2014,07,09,13,17,20.00
2014,07,09,13,18,20.00
2014,07,09,13,19,20.10
2014,07,09,13,20,20.10
2014,07,09,13,21,20.00
2014,07,09,13,22,20.10
2014,07,09,13,23,20.10
2014,07,09,13,24,20.10
2014,07,09,13,25,20.10
2014,07,09,13,26,20.10
2014,07,09,13,27,20.20
2014,07,09,13,28,20.30
2014,07,09,13,29,20.40
2014,07,09,13,30,20.40
2014,07,09,13,31,20.50
2014,07,09,13,32,20.50
2014,07,09,13,33,20.50
2014,07,09,13,34,20.50
2014,07,09,13,35,20.50
2014,07,09,13,36,20.50
2014,07,09,13,37,20.40
2014,07,09,13,38,20.40
2014,07,09,13,39,20.30
2014,07,09,13,40,20.30
2014,07,09,13,41,20.30
2014,07,09,13,42,20.30
2014,07,09,13,43,20.40
2014,07,09,13,44,20.40
2014,07,09,13,45,20.50
2014,07,09,13,46,20.50
2014,07,09,13,47,20.60
2014,07,09,13,48,20.70
2014,07,09,13,49,20.80
2014,07,09,13,50,20.70
2014,07,09,13,51,20.70
2014,07,09,13,52,20.70
2014,07,09,13,53,20.70
2014,07,09,13,54,20.70
2014,07,09,13,55,20.70
2014,07,09,13,56,20.70
2014,07,09,13,57,20.60
2014,07,09,13,58,20.60
2014,07,09,13,59,20.60
2014,07,09,14,00,20.60
2014,07,09,14,01,20.60
2014,07,09,14,02,20.70
2014,07,09,14,03,20.70
2014,07,09,14,04,20.70
2014,07,09,14,05,20.70
2014,07,09,14,06,20.80
2014,07,09,14,07,20.80
2014,07,09,14,08,20.80
2014,07,09,14,09,20.80
2014,07,09,14,10,20.80
2014,07,09,14,11,20.80
2014,07,09,14,12,20.80
2014,07,09,14,13,20.90
2014,07,09,14,14,21.00
2014,07,09,14,15,21.00
2014,07,09,14,16,21.10
2014,07,09,14,17,21.20
2014,07,09,14,18,21.20
2014,07,09,14,19,21.20
2014,07,09,14,20,21.20
2014,07,09,14,21,21.20
2014,07,09,14,22,21.20
2014,07,09,14,23,21.10
2014,07,09,14,24,21.10
2014,07,09,14,25,21.20
2014,07,09,14,26,21.20
2014,07,09,14,27,21.10
2014,07,09,14,28,21.10
2014,07,09,14,29,21.10
2014,07,09,14,30,21.10
2014,07,09,14,31,21.20
2014,07,09,14,32,21.10
2014,07,09,14,33,21.10
2014,07,09,14,34,21.10
2014,07,09,14,35,21.20
2014,07,09,14,36,21.20
2014,07,09,14,37,21.30
2014,07,09,14,38,21.30
2014,07,09,14,39,21.30
2014,07,09,14,40,21.30
2014,07,09,14,41,21.40
2014,07,09,14,42,21.40
2014,07,09,14,43,21.40
2014,07,09,14,44,21.50
2014,07,09,14,45,21.50
2014,07,09,14,46,21.50
2014,07,09,14,47,21.40
2014,07,09,14,48,21.40
2014,07,09,14,49,21.50
2014,07,09,14,50,21.50
2014,07,09,14,51,21.50
2014,07,09,14,52,21.50
2014,07,09,14,53,21.60
2014,07,09,14,54,21.60
2014,07,09,14,55,21.60
2014,07,09,14,56,21.70
2014,07,09,14,57,21.70
2014,07,09,14,58,21.80
2014,07,09,14,59,21.80
2014,07,09,15,00,21.70
2014,07,09,15,01,21.70
2014,07,09,15,02,21.70
2014,07,09,15,03,21.70
2014,07,09,15,04,21.70
2014,07,09,15,05,21.70
2014,07,09,15,06,21.70
2014,07,09,15,07,21.70
2014,07,09,15,08,21.60
2014,07,09,15,09,21.60
2014,07,09,15,10,21.60
2014,07,09,15,11,21.60
2014,07,09,15,12,21.60
2014,07,09,15,13,21.60
2014,07,09,15,14,21.60
2014,07,09,15,15,21.60
2014,07,09,15,16,21.70
2014,07,09,15,17,21.70
2014,07,09,15,18,21.80
2014,07,09,15,19,21.80
2014,07,09,15,20,21.90
2014,07,09,15,21,22.10
2014,07,09,15,22,22.20
2014,07,09,15,23,22.30
2014,07,09,15,24,22.30
2014,07,09,15,25,22.30
2014,07,09,15,26,22.30
2014,07,09,15,27,22.20
2014,07,09,15,28,22.20
2014,07,09,15,29,22.30
2014,07,09,15,30,22.40
2014,07,09,15,31,22.40
2014,07,09,15,32,22.40
2014,07,09,15,33,22.30
2014,07,09,15,34,22.20
2014,07,09,15,35,22.10
2014,07,09,15,36,22.00
2014,07,09,15,37,22.00
2014,07,09,15,38,22.00
2014,07,09,15,39,21.90
2014,07,09,15,40,21.90
2014,07,09,15,41,21.90
2014,07,09,15,42,21.90
2014,07,09,15,43,21.90
2014,07,09,15,44,22.00
2014,07,09,15,45,22.00
2014,07,09,15,46,21.90
2014,07,09,15,47,21.90
2014,07,09,15,48,21.90
2014,07,09,15,49,21.90
2014,07,09,15,50,21.90
2014,07,09,15,51,22.00
2014,07,09,15,52,21.90
2014,07,09,15,53,21.90
2014,07,09,15,54,21.90
2014,07,09,15,55,21.90
2014,07,09,15,56,21.90
2014,07,09,15,57,21.90
2014,07,09,15,58,21.90
2014,07,09,15,59,22.00
2014,07,09,16,00,22.00
2014,07,09,16,01,22.10
2014,07,09,16,02,22.10
2014,07,09,16,03,22.10
2014,07,09,16,04,22.10
2014,07,09,16,05,22.20
2014,07,09,16,06,22.30
2014,07,09,16,07,22.30
2014,07,09,16,08,22.30
2014,07,09,16,09,22.30
2014,07,09,16,10,22.30
2014,07,09,16,11,22.30
2014,07,09,16,12,22.30
2014,07,09,16,13,22.40
2014,07,09,16,14,22.40
2014,07,09,16,15,22.50
2014,07,09,16,16,22.60
2014,07,09,16,17,22.60
2014,07,09,16,18,22.70
2014,07,09,16,19,22.60
2014,07,09,16,20,22.60
2014,07,09,16,21,22.50
2014,07,09,16,22,22.60
2014,07,09,16,23,22.50
2014,07,09,16,24,22.60
2014,07,09,16,25,22.60
2014,07,09,16,26,22.70
2014,07,09,16,27,22.70
2014,07,09,16,28,22.70
2014,07,09,16,29,22.70
2014,07,09,16,30,22.60
2014,07,09,16,31,22.60
2014,07,09,16,32,22.60
2014,07,09,16,33,22.60
2014,07,09,16,34,22.60
2014,07,09,16,35,22.60
2014,07,09,16,36,22.60
2014,07,09,16,37,22.60
2014,07,09,16,38,22.60
2014,07,09,16,39,22.60
2014,07,09,16,40,22.60
2014,07,09,16,41,22.60
2014,07,09,16,42,22.60
2014,07,09,16,43,22.60
2014,07,09,16,44,22.60
2014,07,09,16,45,22.50
2014,07,09,16,46,22.50
2014,07,09,16,47,22.50
2014,07,09,16,48,22.50
2014,07,09,16,49,22.60
2014,07,09,16,50,22.60
2014,07,09,16,51,22.60
2014,07,09,16,52,22.70
2014,07,09,16,53,22.70
2014,07,09,16,54,22.70
2014,07,09,16,55,22.70
2014,07,09,16,56,22.70
2014,07,09,16,57,22.70
2014,07,09,16,58,22.80
2014,07,09,16,59,22.80
2014,07,09,17,00,22.80
2014,07,09,17,01,22.80
2014,07,09,17,02,22.80
2014,07,09,17,03,22.90
2014,07,09,17,04,22.90
2014,07,09,17,05,23.00
2014,07,09,17,06,23.10
2014,07,09,17,07,23.10
2014,07,09,17,08,23.10
2014,07,09,17,09,23.00
2014,07,09,17,10,23.00
2014,07,09,17,11,23.00
2014,07,09,17,12,23.00
2014,07,09,17,13,23.10
2014,07,09,17,14,23.20
2014,07,09,17,15,23.20
2014,07,09,17,16,23.20
2014,07,09,17,17,23.20
2014,07,09,17,18,23.20
2014,07,09,17,19,23.20
2014,07,09,17,20,23.10
2014,07,09,17,21,23.10
2014,07,09,17,22,23.10
2014,07,09,17,23,23.10
2014,07,09,17,24,23.00
2014,07,09,17,25,23.00
2014,07,09,17,26,23.00
2014,07,09,17,27,23.00
2014,07,09,17,28,23.10
2014,07,09,17,29,23.10
2014,07,09,17,30,23.20
2014,07,09,17,31,23.20
2014,07,09,17,32,23.20
2014,07,09,17,33,23.10
2014,07,09,17,34,23.10
2014,07,09,17,35,23.10
2014,07,09,17,36,23.10
2014,07,09,17,37,23.10
2014,07,09,17,38,23.10
2014,07,09,17,39,23.10
2014,07,09,17,40,23.10
2014,07,09,17,41,23.10
2014,07,09,17,42,23.10
2014,07,09,17,43,23.10
2014,07,09,17,44,23.10
2014,07,09,17,45,23.10
2014,07,09,17,46,23.10
2014,07,09,17,47,23.10
2014,07,09,17,48,23.20
2014,07,09,17,49,23.20
2014,07,09,17,50,23.20
2014,07,09,17,51,23.10
2014,07,09,17,52,23.00
2014,07,09,17,53,23.00
2014,07,09,17,54,23.00
2014,07,09,17,55,23.00
2014,07,09,17,56,23.10
2014,07,09,17,57,23.10
2014,07,09,17,58,23.20
2014,07,09,17,59,23.20
2014,07,09,18,00,23.20
2014,07,09,18,01,23.10
2014,07,09,18,02,23.10
2014,07,09,18,03,23.10
2014,07,09,18,04,23.20
2014,07,09,18,05,23.20
2014,07,09,18,06,23.20
2014,07,09,18,07,23.30
2014,07,09,18,08,23.30
2014,07,09,18,09,23.30
2014,07,09,18,10,23.40
2014,07,09,18,11,23.40
2014,07,09,18,12,23.30
2014,07,09,18,13,23.30
2014,07,09,18,14,23.20
2014,07,09,18,15,23.20
2014,07,09,18,16,23.20
2014,07,09,18,17,23.20
2014,07,09,18,18,23.30
2014,07,09,18,19,23.30
2014,07,09,18,20,23.30
2014,07,09,18,21,23.30
2014,07,09,18,22,23.30
2014,07,09,18,23,23.30
2014,07,09,18,24,23.30
2014,07,09,18,25,23.30
2014,07,09,18,26,23.30
2014,07,09,18,27,23.30
2014,07,09,18,28,23.40
2014,07,09,18,29,23.40
2014,07,09,18,30,23.30
2014,07,09,18,31,23.30
2014,07,09,18,32,23.30
2014,07,09,18,33,23.30
2014,07,09,18,34,23.30
2014,07,09,18,35,23.30
2014,07,09,18,36,23.30
2014,07,09,18,37,23.40
2014,07,09,18,38,23.30
2014,07,09,18,39,23.30
2014,07,09,18,40,23.30
2014,07,09,18,41,23.30
2014,07,09,18,42,23.30
2014,07,09,18,43,23.30
2014,07,09,18,44,23.30
2014,07,09,18,45,23.30
2014,07,09,18,46,23.30
2014,07,09,18,47,23.30
2014,07,09,18,48,23.30
2014,07,09,18,49,23.30
2014,07,09,18,50,23.40
2014,07,09,18,51,23.40
2014,07,09,18,52,23.40
2014,07,09,18,53,23.30
2014,07,09,18,54,23.30
2014,07,09,18,55,23.20
2014,07,09,18,56,23.20
2014,07,09,18,57,23.20
2014,07,09,18,58,23.10
2014,07,09,18,59,23.10
2014,07,09,19,00,23.10
2014,07,09,19,01,23.10
2014,07,09,19,02,23.10
2014,07,09,19,03,23.10
2014,07,09,19,04,23.00
2014,07,09,19,05,23.00
2014,07,09,19,06,22.90
2014,07,09,19,07,22.90
2014,07,09,19,08,22.90
2014,07,09,19,09,22.80
2014,07,09,19,10,22.80
2014,07,09,19,11,22.80
2014,07,09,19,12,22.80
2014,07,09,19,13,22.90
2014,07,09,19,14,22.90
2014,07,09,19,15,22.90
2014,07,09,19,16,22.90
2014,07,09,19,17,23.00
2014,07,09,19,18,23.00
2014,07,09,19,19,23.00
2014,07,09,19,20,22.90
2014,07,09,19,21,22.90
2014,07,09,19,22,22.90
2014,07,09,19,23,22.90
2014,07,09,19,24,22.80
2014,07,09,19,25,22.80
2014,07,09,19,26,22.80
2014,07,09,19,27,22.80
2014,07,09,19,28,22.80
2014,07,09,19,29,22.90
2014,07,09,19,30,22.90
2014,07,09,19,31,22.90
2014,07,09,19,32,22.80
2014,07,09,19,33,22.80